| time (UTC) | temp C | wind direction | speed KPH | gust KPH | rain 1hr cm | rain 24hr cm | rain mn cm | humidity % | barometer mb |
| 20260508044909 | 12 | 41 | 0.0 | 0.0 | 0.00 | 0.91 | 0.00 | 93 | 1001.0 |
| 20260508043918 | 12 | 41 | 0.0 | 0.0 | 0.00 | 0.99 | 0.00 | 93 | 1001.0 |
| 20260508042904 | 13 | 41 | 0.0 | 0.0 | 0.00 | 1.02 | 0.00 | 93 | 1001.0 |
| 20260508041906 | 13 | 41 | 0.0 | 0.0 | 0.00 | 1.07 | 0.00 | 93 | 1000.9 |
| 20260508040915 | 13 | 41 | 0.0 | 0.0 | 0.00 | 1.12 | 0.00 | 93 | 1001.0 |
| 20260508035903 | 13 | 41 | 0.0 | 0.0 | 0.00 | 1.12 | 1.12 | 93 | 1000.8 |
| 20260508035332 | 13 | 41 | 0.0 | 0.0 | 0.00 | 1.12 | 1.12 | 93 | 1000.4 |
| 20260508035057 | 13 | 41 | 0.0 | 0.0 | 0.00 | 1.12 | 1.12 | 93 | 1000.8 |
| 20260508032902 | 13 | 41 | 0.0 | 0.0 | 0.00 | 1.14 | 1.12 | 93 | 1000.2 |
| 20260508031901 | 12 | 41 | 0.0 | 0.0 | 0.00 | 1.14 | 1.12 | 92 | 1000.0 |
| 20260508031353 | 12 | 41 | 0.0 | 0.0 | 0.00 | 1.14 | 1.12 | 92 | 1000.1 |
| 20260508030345 | 13 | 41 | 0.0 | 0.0 | 0.00 | 1.14 | 1.12 | 92 | 1000.0 |
| 20260508024902 | 13 | 41 | 0.0 | 0.0 | 0.00 | 1.14 | 1.12 | 92 | 999.9 |
| 20260508024343 | 12 | 41 | 0.0 | 0.0 | 0.00 | 1.14 | 1.12 | 92 | 999.9 |
| 20260508022901 | 12 | 41 | 0.0 | 0.0 | 0.00 | 1.14 | 1.12 | 92 | 999.8 |
| 20260508021900 | 12 | 41 | 0.0 | 0.0 | 0.00 | 1.14 | 1.12 | 92 | 999.5 |
| 20260508021834 | 13 | 41 | 0.0 | 0.0 | 0.00 | 1.14 | 1.12 | 92 | 999.7 |
| 20260508015859 | 12 | 41 | 0.0 | 0.0 | 0.00 | 1.14 | 1.12 | 92 | 999.5 |
| 20260508014858 | 13 | 41 | 0.0 | 0.0 | 0.00 | 1.14 | 1.12 | 92 | 999.6 |
| 20260508013857 | 12 | 41 | 0.0 | 0.0 | 0.00 | 1.14 | 1.12 | 91 | 999.3 |
| 20260508012857 | 12 | 41 | 0.0 | 3.2 | 0.00 | 1.14 | 1.12 | 91 | 999.0 |
| 20260508011858 | 12 | 40 | 0.0 | 3.2 | 0.00 | 1.14 | 1.12 | 91 | 998.8 |
| 20260508011336 | 13 | 40 | 0.0 | 6.4 | 0.00 | 1.14 | 1.12 | 91 | 998.8 |
| 20260508005854 | 13 | 35 | 0.0 | 3.2 | 0.00 | 1.14 | 1.12 | 91 | 999.0 |
| 20260508004855 | 13 | 35 | 0.0 | 3.2 | 0.00 | 1.14 | 1.12 | 91 | 999.1 |
| 20260508003854 | 13 | 35 | 0.0 | 3.2 | 0.00 | 1.14 | 1.12 | 91 | 998.8 |
| 20260508002854 | 13 | 34 | 0.0 | 4.8 | 0.00 | 1.14 | 1.12 | 91 | 998.4 |
| 20260508001853 | 13 | 28 | 0.0 | 3.2 | 0.00 | 1.14 | 1.12 | 91 | 998.7 |
| 20260508000854 | 13 | 28 | 1.6 | 11.3 | 0.00 | 1.14 | 1.12 | 91 | 998.7 |
| 20260508000335 | 13 | 333 | 0.0 | 9.7 | 0.00 | 1.14 | 1.12 | 91 | 998.4 |
| 20260507234852 | 13 | 30 | 0.0 | 4.8 | 0.00 | 1.14 | 1.12 | 91 | 997.9 |
| 20260507233851 | 13 | 22 | 1.6 | 8.0 | 0.00 | 1.14 | 1.12 | 91 | 997.9 |
| 20260507232849 | 13 | 34 | 1.6 | 6.4 | 0.00 | 1.14 | 1.12 | 91 | 997.8 |
| 20260507231848 | 13 | 72 | 3.2 | 12.9 | 0.00 | 1.14 | 1.12 | 91 | 997.5 |
| 20260507231328 | 13 | 68 | 3.2 | 11.3 | 0.00 | 1.14 | 1.12 | 91 | 997.4 |
| 20260507230327 | 13 | 89 | 1.6 | 11.3 | 0.00 | 1.14 | 1.12 | 92 | 997.6 |
| 20260507224846 | 13 | 32 | 3.2 | 14.5 | 0.00 | 1.14 | 1.12 | 92 | 997.6 |
| 20260507223843 | 13 | 49 | 1.6 | 12.9 | 0.00 | 1.14 | 1.12 | 92 | 997.4 |
| 20260507222843 | 13 | 99 | 4.8 | 14.5 | 0.00 | 1.14 | 1.12 | 92 | 997.2 |
| 20260507221842 | 13 | 53 | 3.2 | 9.7 | 0.00 | 1.14 | 1.12 | 93 | 997.0 |
| 20260507220844 | 13 | 38 | 3.2 | 14.5 | 0.00 | 1.14 | 1.12 | 93 | 997.1 |
| 20260507215844 | 13 | 50 | 1.6 | 8.0 | 0.00 | 1.14 | 1.12 | 93 | 997.5 |
| 20260507214843 | 13 | 357 | 1.6 | 9.7 | 0.00 | 1.14 | 1.12 | 93 | 997.5 |
| 20260507213843 | 13 | 51 | 1.6 | 8.0 | 0.00 | 1.14 | 1.12 | 93 | 997.3 |
| 20260507213343 | 13 | 64 | 3.2 | 9.7 | 0.00 | 1.14 | 1.12 | 93 | 997.3 |
| 20260507211841 | 13 | 53 | 3.2 | 12.9 | 0.00 | 1.14 | 1.12 | 93 | 997.3 |
| 20260507210838 | 13 | 29 | 3.2 | 14.5 | 0.00 | 1.14 | 1.12 | 93 | 997.2 |
| 20260507205836 | 13 | 62 | 3.2 | 12.9 | 0.00 | 1.14 | 1.12 | 93 | 997.2 |
| 20260507204838 | 13 | 62 | 3.2 | 12.9 | 0.00 | 1.14 | 1.12 | 93 | 996.8 |
| 20260507204316 | 13 | 2 | 1.6 | 11.3 | 0.00 | 1.14 | 1.12 | 93 | 997.0 |
| 20260507202836 | 13 | 60 | 3.2 | 11.3 | 0.00 | 1.14 | 1.12 | 93 | 996.8 |
| 20260507201837 | 13 | 18 | 4.8 | 14.5 | 0.03 | 1.14 | 1.12 | 93 | 996.6 |
| 20260507200837 | 13 | 56 | 3.2 | 17.7 | 0.03 | 1.14 | 1.12 | 93 | 996.4 |
| 20260507195839 | 14 | 48 | 3.2 | 12.9 | 0.03 | 1.14 | 1.12 | 93 | 996.7 |
| 20260507194836 | 14 | 348 | 3.2 | 14.5 | 0.03 | 1.14 | 1.12 | 94 | 996.7 |
| 20260507193837 | 14 | 45 | 3.2 | 12.9 | 0.03 | 1.14 | 1.12 | 94 | 996.5 |
| 20260507193317 | 14 | 10 | 3.2 | 17.7 | 0.03 | 1.14 | 1.12 | 93 | 996.5 |
| 20260507191835 | 14 | 65 | 3.2 | 12.9 | 0.00 | 1.14 | 1.09 | 93 | 996.6 |
| 20260507190834 | 14 | 45 | 3.2 | 11.3 | 0.03 | 1.24 | 1.09 | 93 | 996.8 |
| 20260507185834 | 14 | 349 | 1.6 | 17.7 | 0.03 | 1.32 | 1.09 | 93 | 996.8 |
| 20260507184834 | 15 | 76 | 1.6 | 11.3 | 0.03 | 1.37 | 1.09 | 93 | 996.5 |
| 20260507183834 | 15 | 79 | 1.6 | 12.9 | 0.10 | 1.52 | 1.09 | 92 | 996.1 |
| 20260507182831 | 15 | 345 | 1.6 | 11.3 | 0.10 | 1.57 | 1.09 | 92 | 996.8 |
| 20260507181830 | 15 | 359 | 3.2 | 11.3 | 0.10 | 1.57 | 1.09 | 93 | 996.6 |
| 20260507180831 | 15 | 53 | 1.6 | 11.3 | 0.08 | 1.55 | 1.07 | 92 | 996.0 |
| 20260507180316 | 15 | 68 | 3.2 | 14.5 | 0.08 | 1.55 | 1.07 | 91 | 996.2 |
| 20260507175741 | 16 | 1 | 4.8 | 20.9 | 0.08 | 1.55 | 1.07 | 90 | 996.2 |
| 20260507173829 | 17 | 305 | 3.2 | 17.7 | 0.00 | 1.47 | 0.99 | 90 | 997.0 |
| 20260507172829 | 18 | 55 | 4.8 | 20.9 | 0.00 | 1.47 | 0.99 | 89 | 996.5 |
| 20260507171830 | 20 | 355 | 0.0 | 6.4 | 0.00 | 1.47 | 0.99 | 93 | 995.4 |
| 20260507170829 | 20 | 7 | 1.6 | 8.0 | 0.03 | 1.47 | 0.99 | 94 | 995.5 |
| 20260507165831 | 21 | 311 | 0.0 | 6.4 | 0.03 | 1.47 | 0.99 | 94 | 995.3 |
| 20260507165748 | 20 | 302 | 0.0 | 0.0 | 0.05 | 1.47 | 0.99 | 95 | 995.3 |
| 20260507163829 | 20 | 302 | 0.0 | 0.0 | 0.05 | 1.47 | 0.99 | 95 | 995.4 |
| 20260507162829 | 21 | 302 | 0.0 | 4.8 | 0.05 | 1.47 | 0.99 | 95 | 996.0 |
| 20260507161828 | 21 | 350 | 1.6 | 6.4 | 0.05 | 1.47 | 0.99 | 95 | 996.6 |
| 20260507160828 | 21 | 316 | 0.0 | 4.8 | 0.03 | 1.45 | 0.97 | 96 | 996.9 |
| 20260507155830 | 20 | 283 | 1.6 | 6.4 | 0.03 | 1.45 | 0.97 | 95 | 997.0 |
| 20260507154829 | 20 | 299 | 1.6 | 6.4 | 0.03 | 1.42 | 0.94 | 95 | 996.9 |
| 20260507154312 | 20 | 295 | 1.6 | 4.8 | 0.05 | 1.42 | 0.94 | 95 | 996.8 |
| 20260507152828 | 20 | 269 | 0.0 | 6.4 | 0.08 | 1.42 | 0.94 | 96 | 996.3 |
| 20260507151830 | 20 | 263 | 1.6 | 4.8 | 0.13 | 1.42 | 0.94 | 96 | 996.5 |
| 20260507150829 | 20 | 262 | 1.6 | 11.3 | 0.13 | 1.42 | 0.94 | 96 | 996.5 |
| 20260507145828 | 20 | 310 | 1.6 | 6.4 | 0.13 | 1.42 | 0.94 | 96 | 996.6 |
| 20260507145803 | 20 | 270 | 0.0 | 11.3 | 0.13 | 1.40 | 0.89 | 95 | 996.7 |
| 20260507143827 | 20 | 262 | 1.6 | 6.4 | 0.13 | 1.37 | 0.89 | 95 | 996.9 |
| 20260507143313 | 20 | 277 | 0.0 | 4.8 | 0.13 | 1.35 | 0.86 | 95 | 997.0 |
| 20260507141824 | 20 | 264 | 0.0 | 6.4 | 0.13 | 1.30 | 0.81 | 95 | 996.8 |
| 20260507140825 | 20 | 268 | 0.0 | 4.8 | 0.18 | 1.30 | 0.81 | 95 | 996.7 |
| 20260507140303 | 20 | 279 | 1.6 | 6.4 | 0.20 | 1.30 | 0.81 | 95 | 996.8 |
| 20260507134824 | 20 | 283 | 0.0 | 3.2 | 0.18 | 1.27 | 0.79 | 95 | 997.1 |
| 20260507134749 | 19 | 254 | 1.6 | 6.4 | 0.15 | 1.24 | 0.76 | 95 | 997.3 |
| 20260507132831 | 20 | 292 | 1.6 | 4.8 | 0.13 | 1.22 | 0.74 | 95 | 997.2 |
| 20260507131819 | 20 | 260 | 1.6 | 6.4 | 0.08 | 1.17 | 0.66 | 95 | 997.2 |
| 20260507130820 | 20 | 256 | 1.6 | 8.0 | 0.03 | 1.12 | 0.64 | 96 | 997.1 |
| 20260507125820 | 19 | 255 | 1.6 | 6.4 | 0.00 | 1.09 | 0.61 | 95 | 997.1 |
| 20260507124819 | 19 | 230 | 0.0 | 8.0 | 0.00 | 1.09 | 0.61 | 95 | 997.2 |
| 20260507123819 | 19 | 269 | 0.0 | 6.4 | 0.00 | 1.09 | 0.61 | 95 | 997.1 |
| 20260507122820 | 19 | 258 | 0.0 | 3.2 | 0.00 | 1.09 | 0.61 | 95 | 997.1 |
| 20260507121820 | 19 | 258 | 0.0 | 4.8 | 0.00 | 1.09 | 0.61 | 95 | 997.1 |
| 20260507120821 | 19 | 260 | 0.0 | 3.2 | 0.00 | 1.09 | 0.61 | 95 | 997.2 |
| 20260507115819 | 19 | 260 | 0.0 | 4.8 | 0.00 | 1.09 | 0.61 | 95 | 997.4 |
| 20260507114819 | 19 | 269 | 0.0 | 4.8 | 0.00 | 1.09 | 0.61 | 95 | 997.4 |
| 20260507113820 | 18 | 270 | 0.0 | 6.4 | 0.03 | 1.09 | 0.61 | 95 | 997.5 |
| 20260507112823 | 18 | 260 | 1.6 | 8.0 | 0.03 | 1.09 | 0.61 | 95 | 997.6 |
| 20260507111819 | 18 | 236 | 3.2 | 11.3 | 0.03 | 1.09 | 0.61 | 95 | 997.6 |
| 20260507110821 | 18 | 209 | 3.2 | 12.9 | 0.05 | 1.09 | 0.61 | 95 | 997.7 |
| 20260507105820 | 18 | 274 | 1.6 | 12.9 | 0.05 | 1.04 | 0.61 | 95 | 997.7 |
| 20260507104820 | 18 | 291 | 3.2 | 8.0 | 0.05 | 1.04 | 0.61 | 95 | 997.3 |
| 20260507103819 | 18 | 233 | 3.2 | 16.1 | 0.03 | 1.04 | 0.58 | 95 | 997.1 |
| 20260507102820 | 18 | 247 | 1.6 | 6.4 | 0.03 | 1.04 | 0.58 | 95 | 997.3 |
| 20260507101819 | 18 | 269 | 1.6 | 6.4 | 0.05 | 1.04 | 0.58 | 95 | 997.1 |
| 20260507100820 | 18 | 270 | 0.0 | 6.4 | 0.03 | 1.04 | 0.56 | 95 | 997.2 |
| 20260507095820 | 18 | 272 | 0.0 | 4.8 | 0.03 | 1.02 | 0.56 | 95 | 997.1 |
| 20260507094818 | 18 | 266 | 0.0 | 0.0 | 0.03 | 1.02 | 0.56 | 94 | 997.2 |
| 20260507093817 | 18 | 266 | 0.0 | 0.0 | 0.05 | 1.02 | 0.56 | 94 | 997.2 |
| 20260507093249 | 18 | 266 | 0.0 | 0.0 | 0.05 | 1.02 | 0.56 | 94 | 997.5 |
| 20260507091810 | 18 | 266 | 0.0 | 0.0 | 0.03 | 1.02 | 0.53 | 94 | 997.2 |
| 20260507090810 | 18 | 266 | 0.0 | 0.0 | 0.03 | 1.02 | 0.53 | 94 | 997.4 |
| 20260507090251 | 18 | 266 | 0.0 | 0.0 | 0.05 | 0.97 | 0.53 | 94 | 997.4 |
| 20260507084807 | 18 | 266 | 0.0 | 0.0 | 0.08 | 0.97 | 0.51 | 94 | 997.4 |
| 20260507083806 | 18 | 266 | 0.0 | 3.2 | 0.10 | 0.97 | 0.51 | 94 | 997.5 |
| 20260507083422 | 18 | 266 | 0.0 | 3.2 | 0.13 | 0.97 | 0.51 | 94 | 997.9 |
| 20260507083247 | 18 | 268 | 0.0 | 3.2 | 0.13 | 0.97 | 0.51 | 94 | 998.2 |
| 20260507080804 | 18 | 271 | 0.0 | 6.4 | 0.13 | 0.97 | 0.51 | 94 | 998.2 |
| 20260507075803 | 18 | 267 | 0.0 | 3.2 | 0.10 | 0.86 | 0.48 | 94 | 998.0 |
| 20260507075246 | 18 | 267 | 0.0 | 3.2 | 0.08 | 0.86 | 0.46 | 94 | 997.5 |
| 20260507073803 | 18 | 267 | 1.6 | 4.8 | 0.03 | 0.86 | 0.41 | 94 | 997.9 |
| 20260507073244 | 18 | 274 | 0.0 | 4.8 | 0.00 | 0.86 | 0.38 | 93 | 998.5 |
| 20260507071801 | 18 | 270 | 0.0 | 0.0 | 0.00 | 0.86 | 0.38 | 93 | 998.6 |
| 20260507070803 | 18 | 271 | 0.0 | 0.0 | 0.00 | 0.86 | 0.38 | 93 | 998.5 |
| 20260507070251 | 18 | 270 | 0.0 | 0.0 | 0.00 | 0.86 | 0.38 | 93 | 998.2 |
| 20260507064801 | 18 | 270 | 0.0 | 0.0 | 0.00 | 0.86 | 0.38 | 93 | 998.6 |
| 20260507064737 | 18 | 270 | 0.0 | 0.0 | 0.03 | 0.86 | 0.38 | 93 | 998.7 |
| 20260507063232 | 18 | 270 | 0.0 | 4.8 | 0.03 | 0.86 | 0.38 | 93 | 999.0 |
| 20260507061800 | 18 | 272 | 0.0 | 0.0 | 0.03 | 0.86 | 0.38 | 92 | 999.3 |
| 20260507060800 | 18 | 272 | 0.0 | 0.0 | 0.03 | 0.86 | 0.38 | 92 | 999.0 |
| 20260507055801 | 18 | 272 | 0.0 | 0.0 | 0.10 | 0.79 | 0.38 | 92 | 999.3 |
| 20260507054801 | 18 | 272 | 0.0 | 0.0 | 0.18 | 0.79 | 0.38 | 92 | 999.3 |
| 20260507053802 | 19 | 272 | 0.0 | 3.2 | 0.23 | 0.79 | 0.36 | 91 | 999.4 |
| 20260507052801 | 19 | 270 | 0.0 | 4.8 | 0.28 | 0.79 | 0.36 | 90 | 998.6 |
| 20260507051800 | 19 | 238 | 0.0 | 0.0 | 0.30 | 0.79 | 0.36 | 90 | 998.1 |
| 20260507050801 | 19 | 238 | 1.6 | 6.4 | 0.36 | 0.79 | 0.36 | 89 | 998.5 |
| 20260507045801 | 20 | 252 | 1.6 | 9.7 | 0.28 | 0.48 | 0.28 | 89 | 999.1 |